Starlink 31359

operational
NORAD ID: 58945 Int'l Des: 2024-027 Owner: SPXS Country: US Constellation: starlink
LEOCIRCULAR

Starlink 31359について

説明を読み込み中...

リアルタイム位置

3D地球を読み込み中...

次回通過

高度履歴

Altitude vs Time

uPlot chart will show altitude changes over time

軌道要素

1 58945U 24027Q 25354.17590843 -.00000635 00000-0 -93311-5 0 9990
2 58945 53.1612 280.5223 0001248 100.6261 259.4880 15.30187074105709
Epoch: Dec 20, 2025 • Age: 9 hours

現在のステータス

高度 478.5 km
速度 7.63 km/s
衛星直下点 -10.59°S, 22.23°W
打ち上げ日 Feb 10, 2024
運用期間 1.8 years
タイプ internet

技術仕様

分類 Payload
質量 730.00 kg
乾燥質量 700.00 kg
総質量 730.00 kg
長さ 0.30 m
直径 4.10 m
スパン 29.00 m
形状 Box + pan
製造者 SPXS
バスタイプ Starlink V2M
フェーズステータス In Orbit
所有者/国 SPXS/US

大規模コンステレーション

Loading constellations...